Powrót do katalogu

DELTA 1 DEB

AktywnyLEO
NORAD 18906·DEBRIS·🇺🇸 United States

Wystrzelony Nov 6, 1973 z Vandenberg Space Force Base

Loading…

Następne Przeloty (najbliższe 24 godziny)

TLE

ŚwieżeSource: Space-Track

Epoka: Sep 14, 2026, 15:31 UTC

1 18906U 73086HB  26257.64707463 -.00000052  00000-0 -19634-4 0  9993
2 18906 102.2395 139.3000 0088779 292.3136  96.3914 12.55923780783292

Śledź DELTA 1 DEB w czasie rzeczywistym z AllMySat

Download on the App Store